EW3221 Weather Reports


Display with metric or nautical units.
time (UTC)temp
F
wind
direction
speed
MPH
gust
MPH
rain 1hr
in
rain 24hr
in
rain mn
in
humidity
%
barometer
mb
20260502233027 56 319 0.0 8.0 0.00 0.03 0.03 47 1011.3
20260502231512 56 294 1.0 9.0 0.00 0.03 0.03 46 1011.3
20260502230012 57 313 0.0 6.0 0.00 0.03 0.03 46 1011.2
20260502224511 57 314 0.0 7.0 0.00 0.03 0.03 47 1011.1
20260502223011 57 327 0.0 1.0 0.00 0.03 0.03 45 1011.2
20260502221515 58 295 0.0 11.0 0.00 0.03 0.03 45 1011.2
20260502220015 59 319 3.0 9.0 0.00 0.03 0.03 46 1011.2
20260502214511 59 345 2.0 10.0 0.00 0.03 0.03 45 1011.3
20260502213010 60 315 5.0 11.0 0.00 0.03 0.03 44 1011.0
20260502211509 60 284 1.0 11.0 0.00 0.03 0.03 45 1011.0
20260502210009 59 333 0.0 9.0 0.00 0.03 0.03 41 1010.9
20260502204507 59 355 4.0 9.0 0.00 0.03 0.03 43 1010.9
20260502203005 61 315 4.0 9.0 0.00 0.03 0.03 43 1010.9
20260502201505 59 332 1.0 7.0 0.00 0.03 0.03 45 1010.9
20260502200004 61 342 2.0 8.0 0.00 0.03 0.03 40 1010.8
20260502194505 61 306 0.0 8.0 0.00 0.03 0.03 45 1011.0
20260502193001 60 331 0.0 8.0 0.00 0.03 0.03 48 1011.3
20260502191607 60 337 4.0 10.0 0.00 0.03 0.03 44 1011.7
20260502190058 62 283 4.0 11.0 0.00 0.03 0.03 45 1011.9
20260502184602 61 42 2.0 8.0 0.00 0.03 0.03 54 1012.2
20260502183056 62 246 0.0 10.0 0.00 0.03 0.03 52 1012.3
20260502181555 61 279 4.0 11.0 0.00 0.03 0.03 44 1012.6
20260502163049 57 5 0.0 6.0 0.00 0.03 0.03 54 1013.5
20260502161540 56 95 0.0 7.0 0.00 0.03 0.03 57 1013.7
20260502151549 54 314 1.0 10.0 0.00 0.03 0.03 61 1014.4
20260502123024 50 351 3.0 11.0 0.00 0.03 0.03 74 1013.7
20260502121511 50 316 0.0 6.0 0.00 0.03 0.03 73 1013.5
20260502114508 49 324 3.0 11.0 0.00 0.03 0.03 74 1013.8
20260502113006 49 343 3.0 9.0 0.00 0.03 0.03 74 1014.0
20260502111502 48 309 3.0 9.0 0.00 0.03 0.03 76 1013.8
20260502110100 48 309 6.0 11.0 0.00 0.03 0.03 76 1013.6
20260502104557 48 293 3.0 9.0 0.00 0.03 0.03 79 1013.4
20260502103104 47 308 2.0 8.0 0.00 0.03 0.03 84 1013.3
20260502101559 46 331 2.0 8.0 0.00 0.03 0.03 88 1013.1
20260502100113 46 323 0.0 0.0 0.00 0.03 0.03 90 1013.0
20260502070034 48 191 0.0 0.0 0.00 0.03 0.03 92 1012.0
20260502064532 49 191 0.0 0.0 0.00 0.03 0.03 92 1012.0
20260502063029 50 191 0.0 0.0 0.00 0.03 0.03 92 1012.2
20260502061534 50 190 0.0 0.0 0.01 0.03 0.03 92 1012.3
20260502060024 50 298 0.0 0.0 0.01 0.03 0.03 91 1012.2
20260502054524 51 298 0.0 0.0 0.01 0.03 0.03 91 1012.2
20260502053023 51 298 0.0 0.0 0.03 0.03 0.03 90 1012.2
20260502051524 51 298 0.0 0.0 0.02 0.02 0.02 90 1012.4
20260502050018 51 298 0.0 1.0 0.02 0.02 0.02 88 1012.5
20260502044517 52 298 0.0 4.0 0.02 0.02 0.02 87 1012.7
20260502043020 52 228 0.0 1.0 0.00 0.00 0.00 85 1012.5
20260502041519 52 177 0.0 1.0 0.00 0.00 0.00 83 1012.0
20260502040013 52 159 0.0 0.0 0.00 0.00 0.00 81 1012.0
20260502034508 52 132 0.0 0.0 0.00 0.00 0.00 79 1011.8
20260502033012 53 132 0.0 0.0 0.00 0.00 0.00 78 1011.9
20260502031507 52 143 0.0 3.0 0.00 0.00 0.00 77 1011.7
20260502030006 52 152 0.0 3.0 0.00 0.00 0.00 77 1011.4
20260502024509 53 134 0.0 4.0 0.00 0.00 0.00 77 1011.6
20260502023008 52 139 0.0 3.0 0.00 0.00 0.00 76 1011.6
20260502021504 52 146 0.0 4.0 0.00 0.00 0.00 75 1011.8
20260502020004 52 175 0.0 3.0 0.00 0.00 0.00 75 1011.7
20260502014504 53 141 0.0 3.0 0.00 0.00 0.00 75 1011.5
20260502013004 53 173 0.0 4.0 0.00 0.00 0.00 75 1011.1
20260502011503 53 131 0.0 5.0 0.00 0.00 0.00 74 1011.0
20260502010002 53 63 0.0 3.0 0.00 0.00 0.00 75 1010.6
20260502004608 53 105 0.0 2.0 0.00 0.00 0.00 72 1010.7
20260502003105 54 90 0.0 2.0 0.00 0.00 0.00 70 1010.9
20260502001557 55 106 0.0 2.0 0.00 0.00 0.00 66 1010.9
20260502000057 56 132 0.0 4.0 0.00 0.00 0.00 63 1010.8
20260501234559 57 107 0.0 5.0 0.00 0.00 0.00 60 1010.4